Time,TemperatureF,DewpointF,PressureIn,WindDirection,WindDirectionDegrees,WindSpeedMPH,WindSpeedGustMPH,Humidity,HourlyPrecipIn,Conditions,Clouds,dailyrainin,SoftwareType,DateUTC
2013-06-10 00:01:00,55.9,41.9,30.26,East,86,0.0,0.0,59,0.00,,,0.00,meteohub,2013-06-10 04:01:00,
2013-06-10 00:02:00,55.9,41.9,30.26,East,86,0.0,0.0,59,0.00,,,0.00,meteohub,2013-06-10 04:02:00,
2013-06-10 00:07:00,56.1,41.9,30.26,East,86,0.0,0.0,59,0.00,,,0.00,meteohub,2013-06-10 04:07:00,
2013-06-10 00:12:00,55.9,41.9,30.26,East,86,0.0,0.0,59,0.00,,,0.00,meteohub,2013-06-10 04:12:00,
2013-06-10 00:17:00,55.9,41.9,30.26,East,86,0.0,0.0,59,0.00,,,0.00,meteohub,2013-06-10 04:17:00,
2013-06-10 00:22:00,55.6,41.9,30.26,East,86,0.0,0.0,60,0.00,,,0.00,meteohub,2013-06-10 04:22:00,
2013-06-10 00:27:00,55.4,41.7,30.23,NW,312,0.0,4.0,60,0.00,,,0.00,meteohub,2013-06-10 04:27:00,
2013-06-10 00:32:00,55.4,41.7,30.23,WNW,290,0.0,4.0,60,0.00,,,0.00,meteohub,2013-06-10 04:32:00,
2013-06-10 00:37:00,55.2,42.1,30.23,WNW,290,0.0,4.0,61,0.00,,,0.00,meteohub,2013-06-10 04:37:00,
2013-06-10 00:42:00,55.2,42.1,30.26,WNW,290,0.0,4.0,61,0.00,,,0.00,meteohub,2013-06-10 04:42:00,
2013-06-10 00:47:00,55.2,42.1,30.26,WNW,290,0.0,0.0,61,0.00,,,0.00,meteohub,2013-06-10 04:47:00,
2013-06-10 00:52:00,55.0,41.9,30.26,WNW,290,0.0,0.0,61,0.00,,,0.00,meteohub,2013-06-10 04:52:00,
2013-06-10 00:57:00,54.9,42.1,30.26,WNW,290,0.0,0.0,62,0.00,,,0.00,meteohub,2013-06-10 04:57:00,
2013-06-10 01:02:00,54.9,42.1,30.26,WNW,290,0.0,0.0,62,0.00,,,0.00,meteohub,2013-06-10 05:02:00,
2013-06-10 01:07:00,54.7,41.9,30.26,WNW,290,0.0,0.0,62,0.00,,,0.00,meteohub,2013-06-10 05:07:00,
2013-06-10 01:12:00,54.5,41.7,30.26,WNW,290,0.0,0.0,62,0.00,,,0.00,meteohub,2013-06-10 05:12:00,
2013-06-10 01:17:00,54.5,41.7,30.26,WNW,290,0.0,0.0,62,0.00,,,0.00,meteohub,2013-06-10 05:17:00,
2013-06-10 01:22:00,54.5,41.7,30.26,WNW,290,0.0,0.0,62,0.00,,,0.00,meteohub,2013-06-10 05:22:00,
2013-06-10 01:27:00,54.5,41.7,30.26,WNW,290,0.0,0.0,62,0.00,,,0.00,meteohub,2013-06-10 05:27:00,
2013-06-10 01:33:00,54.3,42.1,30.26,WNW,290,0.0,0.0,63,0.00,,,0.00,meteohub,2013-06-10 05:33:00,
2013-06-10 01:38:00,54.1,41.9,30.26,WNW,290,0.0,0.0,63,0.00,,,0.00,meteohub,2013-06-10 05:38:00,
2013-06-10 01:43:00,54.1,41.9,30.26,WNW,290,0.0,0.0,63,0.00,,,0.00,meteohub,2013-06-10 05:43:00,
2013-06-10 01:48:00,54.0,41.7,30.26,WNW,290,0.0,0.0,63,0.00,,,0.00,meteohub,2013-06-10 05:48:00,
2013-06-10 01:53:00,53.8,41.5,30.26,WNW,290,0.0,0.0,63,0.00,,,0.00,meteohub,2013-06-10 05:53:00,
2013-06-10 01:58:00,53.8,41.5,30.26,WNW,290,0.0,0.0,63,0.00,,,0.00,meteohub,2013-06-10 05:58:00,
2013-06-10 02:03:00,53.8,41.9,30.26,WNW,290,0.0,0.0,64,0.00,,,0.00,meteohub,2013-06-10 06:03:00,
2013-06-10 02:08:00,53.8,41.9,30.26,WNW,290,0.0,0.0,64,0.00,,,0.00,meteohub,2013-06-10 06:08:00,
2013-06-10 02:13:00,53.6,41.7,30.26,WNW,290,0.0,0.0,64,0.00,,,0.00,meteohub,2013-06-10 06:13:00,
2013-06-10 02:18:00,53.4,41.5,30.26,WNW,290,0.0,0.0,64,0.00,,,0.00,meteohub,2013-06-10 06:18:00,
2013-06-10 02:23:00,53.4,41.5,30.26,WNW,290,0.0,0.0,64,0.00,,,0.00,meteohub,2013-06-10 06:23:00,
2013-06-10 02:28:00,53.2,41.4,30.26,WNW,290,0.0,0.0,64,0.00,,,0.00,meteohub,2013-06-10 06:28:00,
2013-06-10 02:33:00,53.2,41.4,30.26,WNW,290,0.0,0.0,64,0.00,,,0.00,meteohub,2013-06-10 06:33:00,
2013-06-10 02:38:00,53.1,41.2,30.26,WNW,290,0.0,0.0,64,0.00,,,0.00,meteohub,2013-06-10 06:38:00,
2013-06-10 02:43:00,53.1,41.2,30.26,WNW,290,0.0,0.0,64,0.00,,,0.00,meteohub,2013-06-10 06:43:00,
2013-06-10 02:48:00,52.9,41.0,30.26,WNW,290,0.0,0.0,64,0.00,,,0.00,meteohub,2013-06-10 06:48:00,
2013-06-10 02:53:00,52.9,41.0,30.26,WNW,289,0.0,0.0,64,0.00,,,0.00,meteohub,2013-06-10 06:53:00,
2013-06-10 02:58:00,52.7,40.8,30.26,WNW,283,0.0,0.0,64,0.00,,,0.00,meteohub,2013-06-10 06:58:00,
2013-06-10 03:03:00,52.7,41.2,30.26,WNW,291,0.0,0.0,65,0.00,,,0.00,meteohub,2013-06-10 07:03:00,
2013-06-10 03:08:00,52.7,41.2,30.26,WNW,285,0.0,0.0,65,0.00,,,0.00,meteohub,2013-06-10 07:08:00,
2013-06-10 03:13:00,52.7,41.2,30.26,WSW,252,0.0,4.0,65,0.00,,,0.00,meteohub,2013-06-10 07:13:00,
2013-06-10 03:18:00,52.7,41.2,30.26,WSW,252,0.0,4.0,65,0.00,,,0.00,meteohub,2013-06-10 07:18:00,
2013-06-10 03:23:00,52.7,41.7,30.26,WSW,252,0.0,4.0,66,0.00,,,0.00,meteohub,2013-06-10 07:23:00,
2013-06-10 03:28:00,52.7,41.7,30.26,WSW,252,0.0,0.0,66,0.00,,,0.00,meteohub,2013-06-10 07:28:00,
2013-06-10 03:33:00,52.5,41.5,30.26,WSW,252,0.0,0.0,66,0.00,,,0.00,meteohub,2013-06-10 07:33:00,
2013-06-10 03:38:00,52.5,41.9,30.26,WSW,252,0.0,0.0,67,0.00,,,0.00,meteohub,2013-06-10 07:38:00,
2013-06-10 03:43:00,52.5,41.9,30.26,WSW,252,0.0,0.0,67,0.00,,,0.00,meteohub,2013-06-10 07:43:00,
2013-06-10 03:48:00,52.5,41.9,30.26,WSW,252,0.0,0.0,67,0.00,,,0.00,meteohub,2013-06-10 07:48:00,
2013-06-10 03:53:00,52.5,41.9,30.26,WSW,252,0.0,0.0,67,0.00,,,0.00,meteohub,2013-06-10 07:53:00,
2013-06-10 03:58:00,52.5,41.9,30.26,WSW,252,0.0,0.0,67,0.00,,,0.00,meteohub,2013-06-10 07:58:00,
2013-06-10 04:03:00,52.5,41.9,30.26,WSW,252,0.0,0.0,67,0.00,,,0.00,meteohub,2013-06-10 08:03:00,
2013-06-10 04:08:00,52.3,41.7,30.26,WSW,252,0.0,0.0,67,0.00,,,0.00,meteohub,2013-06-10 08:08:00,
2013-06-10 04:13:00,52.3,41.7,30.26,WSW,252,0.0,0.0,67,0.00,,,0.00,meteohub,2013-06-10 08:13:00,
2013-06-10 04:18:00,52.2,41.5,30.26,WSW,252,0.0,0.0,67,0.00,,,0.00,meteohub,2013-06-10 08:18:00,
2013-06-10 04:23:00,52.2,41.5,30.26,WSW,252,0.0,0.0,67,0.00,,,0.00,meteohub,2013-06-10 08:23:00,
2013-06-10 04:28:00,52.2,41.5,30.26,WSW,252,0.0,0.0,67,0.00,,,0.00,meteohub,2013-06-10 08:28:00,
2013-06-10 04:33:00,52.0,41.4,30.26,WSW,252,0.0,0.0,67,0.00,,,0.00,meteohub,2013-06-10 08:33:00,
2013-06-10 04:38:00,51.8,41.2,30.26,WSW,252,0.0,0.0,67,0.00,,,0.00,meteohub,2013-06-10 08:38:00,
2013-06-10 04:43:00,51.8,41.2,30.26,WSW,252,0.0,0.0,67,0.00,,,0.00,meteohub,2013-06-10 08:43:00,
2013-06-10 04:48:00,51.6,41.0,30.26,WSW,252,0.0,0.0,67,0.00,,,0.00,meteohub,2013-06-10 08:48:00,
2013-06-10 04:53:00,51.6,41.0,30.26,WSW,252,0.0,0.0,67,0.00,,,0.00,meteohub,2013-06-10 08:53:00,
2013-06-10 04:58:00,51.6,41.4,30.26,WSW,252,0.0,0.0,68,0.00,,,0.00,meteohub,2013-06-10 08:58:00,
2013-06-10 05:03:00,51.6,41.4,30.26,WSW,252,0.0,0.0,68,0.00,,,0.00,meteohub,2013-06-10 09:03:00,
2013-06-10 05:08:00,51.6,41.4,30.26,WSW,252,0.0,0.0,68,0.00,,,0.00,meteohub,2013-06-10 09:08:00,
2013-06-10 05:13:00,51.6,41.4,30.26,WSW,252,0.0,0.0,68,0.00,,,0.00,meteohub,2013-06-10 09:13:00,
2013-06-10 05:18:00,51.6,41.4,30.26,WSW,252,0.0,0.0,68,0.00,,,0.00,meteohub,2013-06-10 09:18:00,
2013-06-10 05:23:00,51.6,41.4,30.26,WSW,252,0.0,0.0,68,0.00,,,0.00,meteohub,2013-06-10 09:23:00,
2013-06-10 05:28:00,51.6,41.4,30.26,WSW,252,0.0,0.0,68,0.00,,,0.00,meteohub,2013-06-10 09:28:00,
2013-06-10 05:33:00,51.6,41.4,30.26,WSW,252,0.0,0.0,68,0.00,,,0.00,meteohub,2013-06-10 09:33:00,
2013-06-10 05:38:00,51.6,41.4,30.26,WSW,252,0.0,0.0,68,0.00,,,0.00,meteohub,2013-06-10 09:38:00,
2013-06-10 05:43:00,51.6,41.4,30.26,WSW,252,0.0,0.0,68,0.00,,,0.00,meteohub,2013-06-10 09:43:00,
2013-06-10 05:48:00,51.6,41.4,30.26,WSW,252,0.0,0.0,68,0.00,,,0.00,meteohub,2013-06-10 09:48:00,
2013-06-10 05:53:00,51.6,41.4,30.26,WSW,252,0.0,0.0,68,0.00,,,0.00,meteohub,2013-06-10 09:53:00,
2013-06-10 05:58:00,51.6,41.4,30.26,WSW,252,0.0,0.0,68,0.00,,,0.00,meteohub,2013-06-10 09:58:00,
2013-06-10 06:03:00,51.6,41.4,30.26,WSW,252,0.0,0.0,68,0.00,,,0.00,meteohub,2013-06-10 10:03:00,
2013-06-10 06:08:00,51.8,41.5,30.26,WSW,252,0.0,0.0,68,-99.99,,,0.00,meteohub,2013-06-10 10:08:00,
2013-06-10 06:13:00,52.3,42.1,30.26,WSW,252,0.0,0.0,68,0.00,,,0.00,meteohub,2013-06-10 10:13:00,
2013-06-10 06:18:00,53.2,43.0,30.26,WSW,252,0.0,0.0,68,0.00,,,0.00,meteohub,2013-06-10 10:18:00,
2013-06-10 06:23:00,53.6,43.3,30.26,WSW,252,0.0,0.0,68,0.00,,,0.00,meteohub,2013-06-10 10:23:00,
2013-06-10 06:28:00,54.5,44.2,30.26,NW,309,0.0,0.0,68,0.00,,,0.00,meteohub,2013-06-10 10:28:00,
2013-06-10 06:33:00,55.6,45.1,30.26,NW,312,0.0,0.0,68,0.00,,,0.00,meteohub,2013-06-10 10:33:00,
2013-06-10 06:38:00,56.7,46.2,30.26,WNW,303,0.0,0.0,68,0.00,,,0.00,meteohub,2013-06-10 10:38:00,
2013-06-10 06:43:00,57.0,46.2,30.26,NW,308,0.0,0.0,67,0.00,,,0.00,meteohub,2013-06-10 10:43:00,
2013-06-10 06:48:00,58.1,46.8,30.26,NNW,334,0.0,0.0,66,0.00,,,0.00,meteohub,2013-06-10 10:48:00,
2013-06-10 06:53:00,58.5,47.1,30.26,ENE,63,0.0,0.0,66,0.00,,,0.00,meteohub,2013-06-10 10:53:00,
2013-06-10 06:58:00,58.5,46.8,30.26,ENE,63,0.0,0.0,65,0.00,,,0.00,meteohub,2013-06-10 10:58:00,
2013-06-10 07:03:00,57.7,46.0,30.26,ENE,63,0.0,0.0,65,0.00,,,0.00,meteohub,2013-06-10 11:03:00,
2013-06-10 07:08:00,59.2,47.8,30.26,ENE,63,0.0,0.0,66,0.00,,,0.00,meteohub,2013-06-10 11:08:00,
2013-06-10 07:13:00,60.3,48.9,30.26,ESE,112,0.0,0.0,66,0.00,,,0.00,meteohub,2013-06-10 11:13:00,
2013-06-10 07:18:00,60.8,48.6,30.26,ESE,110,3.0,4.0,64,0.00,,,0.00,meteohub,2013-06-10 11:18:00,
2013-06-10 07:23:00,60.6,48.7,30.26,ESE,115,0.0,4.0,65,0.00,,,0.00,meteohub,2013-06-10 11:23:00,
2013-06-10 07:28:00,60.6,48.4,30.26,ESE,116,4.0,4.0,64,0.00,,,0.00,meteohub,2013-06-10 11:28:00,
2013-06-10 07:33:00,60.4,48.2,30.26,ESE,108,0.0,4.0,64,0.00,,,0.00,meteohub,2013-06-10 11:33:00,
2013-06-10 07:38:00,60.3,47.7,30.26,ESE,113,0.0,4.0,63,0.00,,,0.00,meteohub,2013-06-10 11:38:00,
2013-06-10 07:43:00,60.8,48.2,30.26,ESE,118,0.0,4.0,63,0.00,,,0.00,meteohub,2013-06-10 11:43:00,
2013-06-10 07:48:00,61.2,48.9,30.26,ESE,118,0.0,0.0,64,0.00,,,0.00,meteohub,2013-06-10 11:48:00,
2013-06-10 07:53:00,61.5,48.7,30.26,ESE,111,0.0,0.0,63,0.00,,,0.00,meteohub,2013-06-10 11:53:00,
2013-06-10 07:58:00,61.7,48.9,30.26,ESE,111,0.0,0.0,63,0.00,,,0.00,meteohub,2013-06-10 11:58:00,
2013-06-10 08:03:00,62.2,49.5,30.26,ESE,111,0.0,0.0,63,0.00,,,0.00,meteohub,2013-06-10 12:03:00,
2013-06-10 08:08:00,62.1,48.9,30.26,ESE,111,0.0,0.0,62,0.00,,,0.00,meteohub,2013-06-10 12:08:00,
2013-06-10 08:13:00,62.4,48.4,30.26,ESE,111,0.0,0.0,60,0.00,,,0.00,meteohub,2013-06-10 12:13:00,
2013-06-10 08:18:00,62.2,48.2,30.26,ESE,111,0.0,0.0,60,0.00,,,0.00,meteohub,2013-06-10 12:18:00,
2013-06-10 08:23:00,62.4,48.4,30.26,ESE,111,0.0,0.0,60,0.00,,,0.00,meteohub,2013-06-10 12:23:00,
2013-06-10 08:28:00,62.4,48.4,30.26,ESE,111,0.0,0.0,60,0.00,,,0.00,meteohub,2013-06-10 12:28:00,
2013-06-10 08:33:00,62.4,48.4,30.26,ESE,111,0.0,0.0,60,0.00,,,0.00,meteohub,2013-06-10 12:33:00,
2013-06-10 08:38:00,62.6,48.6,30.26,ESE,122,3.0,5.0,60,0.00,,,0.00,meteohub,2013-06-10 12:38:00,
2013-06-10 08:43:00,62.2,48.2,30.26,ESE,119,0.0,5.0,60,0.00,,,0.00,meteohub,2013-06-10 12:43:00,
2013-06-10 08:48:00,62.2,48.2,30.26,ESE,120,0.0,5.0,60,0.00,,,0.00,meteohub,2013-06-10 12:48:00,
2013-06-10 08:53:00,62.2,47.7,30.26,SE,143,0.0,4.0,59,0.00,,,0.00,meteohub,2013-06-10 12:53:00,
2013-06-10 08:58:00,62.4,47.8,30.26,SE,143,0.0,3.0,59,0.00,,,0.00,meteohub,2013-06-10 12:58:00,
2013-06-10 09:03:00,62.6,48.0,30.26,ESE,114,0.0,4.0,59,0.00,,,0.00,meteohub,2013-06-10 13:03:00,
2013-06-10 09:08:00,62.6,47.7,30.26,ESE,114,0.0,4.0,58,0.00,,,0.00,meteohub,2013-06-10 13:08:00,
2013-06-10 09:13:00,63.1,48.6,30.26,ESE,114,0.0,4.0,59,0.00,,,0.00,meteohub,2013-06-10 13:13:00,
2013-06-10 09:18:00,63.1,48.2,30.26,ESE,114,0.0,0.0,58,0.00,,,0.00,meteohub,2013-06-10 13:18:00,
2013-06-10 09:23:00,63.1,48.2,30.26,ESE,114,0.0,0.0,58,0.00,,,0.00,meteohub,2013-06-10 13:23:00,
2013-06-10 09:28:00,63.3,48.4,30.26,ESE,114,0.0,0.0,58,0.00,,,0.00,meteohub,2013-06-10 13:28:00,
2013-06-10 09:33:00,63.5,48.4,30.26,ESE,110,0.0,0.0,58,0.00,,,0.00,meteohub,2013-06-10 13:33:00,
2013-06-10 09:38:00,63.5,47.5,30.26,ESE,108,0.0,0.0,56,0.00,,,0.00,meteohub,2013-06-10 13:38:00,
2013-06-10 09:43:00,63.7,47.3,30.26,ESE,108,0.0,0.0,55,0.00,,,0.00,meteohub,2013-06-10 13:43:00,
2013-06-10 09:48:00,63.9,47.3,30.26,ESE,108,0.0,0.0,55,0.00,,,0.00,meteohub,2013-06-10 13:48:00,
2013-06-10 09:53:00,64.0,47.5,30.26,ESE,108,0.0,0.0,55,0.00,,,0.00,meteohub,2013-06-10 13:53:00,
2013-06-10 09:58:00,64.2,47.7,30.26,ESE,108,0.0,0.0,55,0.00,,,0.00,meteohub,2013-06-10 13:58:00,
2013-06-10 10:03:00,64.6,47.5,30.26,ESE,108,0.0,0.0,54,0.00,,,0.00,meteohub,2013-06-10 14:03:00,
2013-06-10 10:08:00,64.8,47.3,30.26,ESE,108,0.0,0.0,53,0.00,,,0.00,meteohub,2013-06-10 14:08:00,
2013-06-10 10:13:00,65.1,47.5,30.26,ESE,108,0.0,0.0,53,0.00,,,0.00,meteohub,2013-06-10 14:13:00,
2013-06-10 10:18:00,65.5,47.5,30.26,ESE,108,0.0,0.0,52,0.00,,,0.00,meteohub,2013-06-10 14:18:00,
2013-06-10 10:23:00,65.5,47.5,30.26,ESE,108,0.0,0.0,52,0.00,,,0.00,meteohub,2013-06-10 14:23:00,
2013-06-10 10:28:00,65.8,47.7,30.26,ESE,108,0.0,0.0,52,0.00,,,0.00,meteohub,2013-06-10 14:28:00,
2013-06-10 10:33:00,66.2,45.9,30.26,ESE,108,0.0,0.0,48,0.00,,,0.00,meteohub,2013-06-10 14:33:00,
2013-06-10 10:38:00,66.2,46.4,30.26,SE,124,4.0,0.0,49,0.00,,,0.00,meteohub,2013-06-10 14:38:00,
2013-06-10 10:43:00,66.2,45.9,30.26,SE,124,2.0,4.0,48,0.00,,,0.00,meteohub,2013-06-10 14:43:00,
2013-06-10 10:48:00,66.4,46.0,30.26,ESE,123,0.0,4.0,48,0.00,,,0.00,meteohub,2013-06-10 14:48:00,
2013-06-10 10:53:00,66.4,45.0,30.26,ESE,123,0.0,4.0,46,0.00,,,0.00,meteohub,2013-06-10 14:53:00,
2013-06-10 10:58:00,66.2,44.2,30.26,ESE,123,0.0,4.0,45,0.00,,,0.00,meteohub,2013-06-10 14:58:00,
2013-06-10 11:03:00,66.6,45.7,30.26,ESE,123,0.0,0.0,47,0.00,,,0.00,meteohub,2013-06-10 15:03:00,
2013-06-10 11:08:00,66.6,45.1,30.26,ESE,123,0.0,0.0,46,0.00,,,0.00,meteohub,2013-06-10 15:08:00,
2013-06-10 11:13:00,66.4,44.4,30.26,ESE,123,0.0,0.0,45,0.00,,,0.00,meteohub,2013-06-10 15:13:00,
2013-06-10 11:18:00,66.4,44.4,30.26,ESE,123,0.0,0.0,45,0.00,,,0.00,meteohub,2013-06-10 15:18:00,
2013-06-10 11:23:00,66.6,44.6,30.26,ESE,123,0.0,0.0,45,0.00,,,0.00,meteohub,2013-06-10 15:23:00,
2013-06-10 11:28:00,66.6,44.1,30.26,ESE,123,4.0,0.0,44,0.00,,,0.00,meteohub,2013-06-10 15:28:00,
2013-06-10 11:33:00,66.4,44.4,30.26,ESE,116,6.0,6.0,45,0.00,,,0.00,meteohub,2013-06-10 15:33:00,
2013-06-10 11:38:00,66.4,43.2,30.26,ESE,115,6.0,9.0,43,0.00,,,0.00,meteohub,2013-06-10 15:38:00,
2013-06-10 11:43:00,66.4,43.2,30.26,ESE,123,6.0,10.0,43,0.00,,,0.00,meteohub,2013-06-10 15:43:00,
2013-06-10 11:48:00,66.4,43.2,30.26,SSE,152,8.0,11.0,43,0.00,,,0.00,meteohub,2013-06-10 15:48:00,
2013-06-10 11:53:00,66.4,43.2,30.23,SE,125,8.0,11.0,43,0.00,,,0.00,meteohub,2013-06-10 15:53:00,
2013-06-10 11:58:00,66.4,42.6,30.23,ESE,117,8.0,11.0,42,0.00,,,0.00,meteohub,2013-06-10 15:58:00,
2013-06-10 12:03:00,66.2,43.7,30.23,ESE,121,10.0,10.0,44,0.00,,,0.00,meteohub,2013-06-10 16:03:00,
2013-06-10 12:08:00,66.2,43.0,30.23,ESE,115,5.0,11.0,43,0.00,,,0.00,meteohub,2013-06-10 16:08:00,
2013-06-10 12:13:00,66.2,43.7,30.23,ESE,112,6.0,11.0,44,0.00,,,0.00,meteohub,2013-06-10 16:13:00,
2013-06-10 12:18:00,66.0,44.1,30.23,ESE,109,8.0,11.0,45,0.00,,,0.00,meteohub,2013-06-10 16:18:00,
2013-06-10 12:23:00,66.2,44.2,30.23,ESE,111,8.0,8.0,45,0.00,,,0.00,meteohub,2013-06-10 16:23:00,
2013-06-10 12:28:00,66.2,43.0,30.23,SE,126,6.0,9.0,43,0.00,,,0.00,meteohub,2013-06-10 16:28:00,
2013-06-10 12:33:00,66.4,42.6,30.23,ESE,120,8.0,9.0,42,0.00,,,0.00,meteohub,2013-06-10 16:33:00,
2013-06-10 12:38:00,66.4,40.6,30.23,ESE,117,9.0,9.0,39,0.00,,,0.00,meteohub,2013-06-10 16:38:00,
2013-06-10 12:43:00,66.4,41.4,30.23,ESE,121,8.0,9.0,40,0.00,,,0.00,meteohub,2013-06-10 16:43:00,
2013-06-10 12:48:00,66.4,42.6,30.23,SE,129,8.0,9.0,42,0.00,,,0.00,meteohub,2013-06-10 16:48:00,
2013-06-10 12:53:00,66.2,42.4,30.23,ESE,114,7.0,9.0,42,0.00,,,0.00,meteohub,2013-06-10 16:53:00,
2013-06-10 12:58:00,66.2,43.7,30.23,ESE,106,6.0,8.0,44,0.00,,,0.00,meteohub,2013-06-10 16:58:00,
2013-06-10 13:03:00,66.2,43.0,30.23,ESE,102,6.0,8.0,43,0.00,,,0.00,meteohub,2013-06-10 17:03:00,
2013-06-10 13:08:00,66.0,44.1,30.23,East,100,6.0,8.0,45,0.00,,,0.00,meteohub,2013-06-10 17:08:00,
2013-06-10 13:13:00,66.2,44.2,30.23,ESE,104,4.0,8.0,45,0.00,,,0.00,meteohub,2013-06-10 17:13:00,
2013-06-10 13:18:00,66.4,44.4,30.23,ESE,109,4.0,7.0,45,0.00,,,0.00,meteohub,2013-06-10 17:18:00,
2013-06-10 13:23:00,66.4,44.4,30.23,ESE,102,5.0,7.0,45,0.00,,,0.00,meteohub,2013-06-10 17:23:00,
2013-06-10 13:28:00,66.4,44.4,30.23,East,90,6.0,8.0,45,0.00,,,0.00,meteohub,2013-06-10 17:28:00,
2013-06-10 13:33:00,66.2,43.7,30.23,ESE,103,4.0,8.0,44,0.00,,,0.00,meteohub,2013-06-10 17:33:00,
2013-06-10 13:38:00,66.2,43.7,30.23,ESE,104,5.0,8.0,44,0.00,,,0.00,meteohub,2013-06-10 17:38:00,
2013-06-10 13:43:00,66.4,44.4,30.23,ESE,103,6.0,9.0,45,0.00,,,0.00,meteohub,2013-06-10 17:43:00,
2013-06-10 13:48:00,66.2,44.2,30.23,East,99,9.0,9.0,45,0.00,,,0.00,meteohub,2013-06-10 17:48:00,
2013-06-10 13:53:00,66.2,44.2,30.23,ESE,105,9.0,9.0,45,0.00,,,0.00,meteohub,2013-06-10 17:53:00,
2013-06-10 13:58:00,66.2,44.2,30.23,SE,131,8.0,9.0,45,0.00,,,0.00,meteohub,2013-06-10 17:58:00,
2013-06-10 14:03:00,66.2,44.2,30.23,ESE,121,8.0,11.0,45,0.00,,,0.00,meteohub,2013-06-10 18:03:00,
2013-06-10 14:08:00,66.4,44.4,30.23,ESE,122,9.0,11.0,45,0.00,,,0.00,meteohub,2013-06-10 18:08:00,
2013-06-10 14:13:00,66.4,44.4,30.23,ESE,111,9.0,11.0,45,0.00,,,0.00,meteohub,2013-06-10 18:13:00,
2013-06-10 14:18:00,66.2,44.8,30.23,ESE,113,8.0,11.0,46,0.00,,,0.00,meteohub,2013-06-10 18:18:00,
2013-06-10 14:23:00,66.2,44.8,30.23,ESE,117,8.0,10.0,46,0.00,,,0.00,meteohub,2013-06-10 18:23:00,
2013-06-10 14:28:00,66.2,44.8,30.23,ESE,117,8.0,10.0,46,0.00,,,0.00,meteohub,2013-06-10 18:28:00,
2013-06-10 14:33:00,66.2,45.3,30.23,ESE,108,9.0,10.0,47,0.00,,,0.00,meteohub,2013-06-10 18:33:00,
2013-06-10 14:38:00,66.2,45.3,30.20,ESE,113,8.0,10.0,47,0.00,,,0.00,meteohub,2013-06-10 18:38:00,
2013-06-10 14:44:00,66.2,45.3,30.20,ESE,118,6.0,10.0,47,0.00,,,0.00,meteohub,2013-06-10 18:44:00,
2013-06-10 14:49:00,66.2,45.9,30.20,ESE,114,6.0,10.0,48,0.00,,,0.00,meteohub,2013-06-10 18:49:00,
2013-06-10 14:54:00,66.2,45.3,30.20,ESE,111,9.0,9.0,47,0.00,,,0.00,meteohub,2013-06-10 18:54:00,
2013-06-10 14:59:00,66.0,46.4,30.20,ESE,116,9.0,9.0,49,0.00,,,0.00,meteohub,2013-06-10 18:59:00,
2013-06-10 15:06:00,65.8,46.2,30.20,ESE,115,9.0,10.0,49,0.00,,,0.00,meteohub,2013-06-10 19:06:00,
2013-06-10 15:12:00,65.8,46.2,30.20,ESE,106,10.0,11.0,49,0.00,,,0.00,meteohub,2013-06-10 19:12:00,
2013-06-10 15:17:00,65.8,46.2,30.20,ESE,110,6.0,11.0,49,0.00,,,0.00,meteohub,2013-06-10 19:17:00,
2013-06-10 15:22:00,65.7,47.1,30.20,ESE,115,7.0,11.0,51,0.00,,,0.00,meteohub,2013-06-10 19:22:00,
2013-06-10 15:27:00,65.8,46.2,30.20,ESE,123,8.0,11.0,49,0.00,,,0.00,meteohub,2013-06-10 19:27:00,
2013-06-10 15:32:00,65.8,45.7,30.20,SE,125,9.0,10.0,48,0.00,,,0.00,meteohub,2013-06-10 19:32:00,
2013-06-10 15:37:00,65.8,46.2,30.20,ESE,112,10.0,11.0,49,0.00,,,0.00,meteohub,2013-06-10 19:37:00,
2013-06-10 15:42:00,65.7,46.0,30.20,ESE,119,8.0,11.0,49,0.00,,,0.00,meteohub,2013-06-10 19:42:00,
2013-06-10 15:47:00,65.7,46.0,30.20,ESE,122,11.0,11.0,49,0.00,,,0.00,meteohub,2013-06-10 19:47:00,
2013-06-10 15:52:00,65.7,46.0,30.20,ESE,114,8.0,13.0,49,0.00,,,0.00,meteohub,2013-06-10 19:52:00,
2013-06-10 15:58:00,65.7,46.6,30.20,SE,125,6.0,13.0,50,0.00,,,0.00,meteohub,2013-06-10 19:58:00,
2013-06-10 16:03:00,65.7,46.6,30.20,ESE,121,8.0,13.0,50,0.00,,,0.00,meteohub,2013-06-10 20:03:00,
2013-06-10 16:08:00,65.5,46.9,30.20,ESE,119,9.0,13.0,51,0.00,,,0.00,meteohub,2013-06-10 20:08:00,
2013-06-10 16:13:00,65.1,47.1,30.20,ESE,111,11.0,13.0,52,0.00,,,0.00,meteohub,2013-06-10 20:13:00,
2013-06-10 16:18:00,65.1,47.1,30.20,ESE,109,10.0,13.0,52,0.00,,,0.00,meteohub,2013-06-10 20:18:00,
2013-06-10 16:23:00,64.9,46.9,30.20,ESE,105,8.0,13.0,52,0.00,,,0.00,meteohub,2013-06-10 20:23:00,
2013-06-10 16:28:00,64.8,47.7,30.20,ESE,113,8.0,11.0,54,0.00,,,0.00,meteohub,2013-06-10 20:28:00,
2013-06-10 16:33:00,64.6,47.5,30.20,ESE,112,9.0,11.0,54,0.00,,,0.00,meteohub,2013-06-10 20:33:00,
2013-06-10 16:38:00,64.6,47.5,30.20,SE,135,8.0,11.0,54,0.00,,,0.00,meteohub,2013-06-10 20:38:00,
2013-06-10 16:42:00,64.4,47.8,30.20,ESE,115,6.0,11.0,55,0.00,,,0.00,meteohub,2013-06-10 20:42:00,
2013-06-10 16:48:00,64.2,48.2,30.20,ESE,107,6.0,11.0,56,0.00,,,0.00,meteohub,2013-06-10 20:48:00,
2013-06-10 16:53:00,64.2,48.7,30.20,ESE,113,6.0,9.0,57,0.00,,,0.00,meteohub,2013-06-10 20:53:00,
2013-06-10 16:58:00,63.9,48.7,30.17,ESE,104,6.0,8.0,58,0.00,,,0.00,meteohub,2013-06-10 20:58:00,
2013-06-10 17:03:00,63.9,48.7,30.17,ESE,112,6.0,9.0,58,0.00,,,0.00,meteohub,2013-06-10 21:03:00,
2013-06-10 17:08:00,63.7,49.5,30.17,East,101,4.0,9.0,60,0.00,,,0.00,meteohub,2013-06-10 21:08:00,
2013-06-10 17:13:00,63.7,50.0,30.17,East,91,4.0,9.0,61,0.00,,,0.00,meteohub,2013-06-10 21:13:00,
2013-06-10 17:18:00,63.3,50.5,30.17,ESE,103,6.0,8.0,63,0.00,,,0.00,meteohub,2013-06-10 21:18:00,
2013-06-10 17:23:00,63.3,50.5,30.17,East,91,5.0,7.0,63,0.00,,,0.00,meteohub,2013-06-10 21:23:00,
2013-06-10 17:28:00,63.1,51.3,30.17,East,92,4.0,7.0,65,0.00,,,0.00,meteohub,2013-06-10 21:28:00,
2013-06-10 17:33:00,63.0,51.1,30.17,East,96,4.0,6.0,65,0.00,,,0.00,meteohub,2013-06-10 21:33:00,
2013-06-10 17:38:00,63.0,51.4,30.17,ESE,109,8.0,8.0,66,0.00,,,0.00,meteohub,2013-06-10 21:38:00,
2013-06-10 17:43:00,62.8,51.3,30.17,ESE,110,4.0,9.0,66,0.00,,,0.00,meteohub,2013-06-10 21:43:00,
2013-06-10 17:48:00,62.8,51.3,30.17,ESE,108,5.0,9.0,66,0.00,,,0.00,meteohub,2013-06-10 21:48:00,
2013-06-10 17:53:00,62.6,51.4,30.17,ESE,117,7.0,9.0,67,0.00,,,0.00,meteohub,2013-06-10 21:53:00,
2013-06-10 17:58:00,62.4,51.3,30.17,ESE,116,8.0,9.0,67,0.00,,,0.00,meteohub,2013-06-10 21:58:00,
2013-06-10 18:03:00,62.4,51.3,30.17,SE,129,8.0,9.0,67,0.00,,,0.00,meteohub,2013-06-10 22:03:00,
2013-06-10 18:08:00,62.2,51.1,30.17,ESE,107,7.0,9.0,67,0.00,,,0.00,meteohub,2013-06-10 22:08:00,
2013-06-10 18:13:00,62.1,50.9,30.17,ESE,105,9.0,12.0,67,0.00,,,0.00,meteohub,2013-06-10 22:13:00,
2013-06-10 18:18:00,61.9,50.7,30.17,ESE,109,8.0,12.0,67,0.00,,,0.00,meteohub,2013-06-10 22:18:00,
2013-06-10 18:23:00,61.7,50.2,30.17,ESE,115,9.0,12.0,66,0.00,,,0.00,meteohub,2013-06-10 22:23:00,
2013-06-10 18:28:00,61.5,50.0,30.17,SE,124,8.0,11.0,66,0.00,,,0.00,meteohub,2013-06-10 22:28:00,
2013-06-10 18:33:00,61.3,49.5,30.17,ESE,120,8.0,11.0,65,0.00,,,0.00,meteohub,2013-06-10 22:33:00,
2013-06-10 18:38:00,61.3,49.8,30.14,ESE,109,11.0,11.0,66,0.00,,,0.00,meteohub,2013-06-10 22:38:00,
2013-06-10 18:43:00,61.2,50.2,30.14,ESE,110,8.0,11.0,67,0.00,,,0.00,meteohub,2013-06-10 22:43:00,
2013-06-10 18:48:00,61.2,49.6,30.14,ESE,116,6.0,11.0,66,0.00,,,0.00,meteohub,2013-06-10 22:48:00,
2013-06-10 18:53:00,61.0,49.5,30.14,ESE,106,8.0,11.0,66,0.00,,,0.00,meteohub,2013-06-10 22:53:00,
2013-06-10 18:58:00,61.0,49.1,30.14,ESE,110,6.0,10.0,65,0.00,,,0.00,meteohub,2013-06-10 22:58:00,
2013-06-10 19:03:00,61.0,49.5,30.14,SE,124,4.0,8.0,66,0.00,,,0.00,meteohub,2013-06-10 23:03:00,
2013-06-10 19:08:00,61.0,50.4,30.14,East,81,6.0,8.0,68,0.00,,,0.00,meteohub,2013-06-10 23:08:00,
2013-06-10 19:13:00,61.0,50.4,30.14,East,91,6.0,8.0,68,0.00,,,0.00,meteohub,2013-06-10 23:13:00,
2013-06-10 19:18:00,60.8,50.5,30.14,East,96,8.0,9.0,69,0.00,,,0.00,meteohub,2013-06-10 23:18:00,
2013-06-10 19:25:00,60.6,50.7,30.14,East,97,8.0,11.0,70,0.00,,,0.00,meteohub,2013-06-10 23:25:00,
2013-06-10 19:32:00,60.6,50.7,30.14,East,92,6.0,11.0,70,0.00,,,0.00,meteohub,2013-06-10 23:32:00,
2013-06-10 19:37:00,60.6,50.7,30.14,ESE,112,6.0,10.0,70,0.00,,,0.00,meteohub,2013-06-10 23:37:00,
2013-06-10 19:42:00,60.4,51.1,30.14,ESE,109,8.0,10.0,71,0.00,,,0.00,meteohub,2013-06-10 23:42:00,
2013-06-10 20:09:00,59.7,51.1,30.14,East,91,8.0,10.0,73,0.00,,,0.00,meteohub,2013-06-11 00:09:00,
2013-06-10 20:14:00,59.5,50.9,30.14,East,83,6.0,10.0,73,0.00,,,0.00,meteohub,2013-06-11 00:14:00,
2013-06-10 20:19:00,59.5,50.9,30.14,East,90,8.0,8.0,73,0.00,,,0.00,meteohub,2013-06-11 00:19:00,
2013-06-10 20:24:00,59.4,50.7,30.12,East,90,4.0,8.0,73,0.00,,,0.00,meteohub,2013-06-11 00:24:00,
2013-06-10 20:29:00,59.2,50.5,30.12,East,86,6.0,8.0,73,0.00,,,0.00,meteohub,2013-06-11 00:29:00,
2013-06-10 20:34:00,59.2,50.9,30.12,East,95,6.0,9.0,74,0.00,,,0.00,meteohub,2013-06-11 00:34:00,
2013-06-10 20:39:00,59.2,50.9,30.12,East,99,6.0,9.0,74,0.00,,,0.00,meteohub,2013-06-11 00:39:00,
2013-06-10 20:44:00,59.0,50.7,30.12,ENE,62,6.0,9.0,74,0.00,,,0.00,meteohub,2013-06-11 00:44:00,
2013-06-10 20:49:00,59.0,50.7,30.12,East,95,4.0,9.0,74,0.00,,,0.00,meteohub,2013-06-11 00:49:00,
2013-06-10 20:54:00,58.8,50.5,30.12,ESE,111,5.0,9.0,74,0.00,,,0.00,meteohub,2013-06-11 00:54:00,
2013-06-10 20:59:00,58.8,50.5,30.12,ESE,110,8.0,9.0,74,0.00,,,0.00,meteohub,2013-06-11 00:59:00,